If you wish to contribute or participate in the discussions about articles you are invited to join SKYbrary as a registered user

 Actions

Buenos Aires/Aeroparque Jorge Newbery

From SKYbrary Wiki

SABE
Airport
ICAO: SABE – IATA: AEP
Summary
Name Buenos Aires/Aeroparque Jorge Newbery
Region South America and Caribbean
Territory Argentina AR.gif
Location Palermo, Buenos Aires
Serving Buenos Aires
Elevation 5.486 m
18 ft
18 ft5.486 m
Coordinates 34° 33' 28.69" S, 58° 24' 49.50" W
Runways
Designator Length Width Surface ROPS
13/31 2100 m6,889.764 ft
40 m131.234 ft
CON yes/yes


METAR
Observation SABE 210300Z 18005KT 140V210 CAVOK 18/06 Q1021 NOSIG
Station Aeroparque Bs. As. Aerodrome
Date/Time 21 February 2020 03:00:00
Wind direction 180°
Wind speed 05 kts
Lowest cloud amount clouds and visibility OK
Temperature 18°C
Dew point 6°C
Humidity 45%
QNH 1021 hPa
Weather condition n/a

International airport serving the city of Buenos Aires.

Climatology

Humid “subtropical” climate (Köppen climate classification Cfa) - characterized by hot, humid summers and cool winters. Significant amounts of precipitation occur in all seasons in most areas. Winter rainfall (and sometimes snowfall) is associated with large storms that the westerlies steer from west to east. Most summer rainfall occurs during thunderstorms.

Maps

Terrain

Loading map...

Airport Layout

Loading map...


Accidents & Serious Incidents at or in vicinity of SABE

None on SKYbrary